Regional Weather Roundup
Issued by NWS

Home | Current Version | Previous Version | Text Only | Print | Product List | Glossary Off
Versions: 1 2 3 4 5 6 7 8 9 10 11 12 13 14 15 16 17 18 19 20 21 22 23 24 25 26 27 28

000
ASUS45 KTFX 162110
RWRMT
MONTANA REGIONAL WEATHER ROUNDUP
NATIONAL WEATHER SERVICE GREAT FALLS MT
300 PM MDT MON OCT 16 2017

NOTE: "FAIR" INDICATES FEW OR NO CLOUDS BELOW 12000 FEET WITH NO
SIGNIFICANT WEATHER AND/OR OBSTRUCTIONS TO VISIBILITY.

MTZ001>007-043-162200-
WEST OF THE DIVIDE

CITY           SKY/WX    TMP DP  RH WIND       PRES   REMARKS
KALISPELL      SUNNY     62  30  29 S13       30.14F
MISSOULA       SUNNY     61  27  27 CALM      30.20F
BUTTE          SUNNY     63  17  17 W10       30.24F
MULLAN PASS    SUNNY     48  21  34 W8        30.25S
$$

MTZ008-052>055-162200-
SOUTHWEST MONTANA

CITY           SKY/WX    TMP DP  RH WIND       PRES   REMARKS
BOZEMAN        SUNNY     68  21  16 E3        30.20F
DILLON         SUNNY     66  21  18 SW13      30.24F
W YELLOWSTONE  SUNNY     52  16  24 SW16G25   30.36F
ENNIS          SUNNY     64  18  16 VRB7G14   30.30F
$$

MTZ009-010-012-014-046-048-049-054-162200-
EAST SLOPES AND CENTRAL MONTANA

CITY           SKY/WX    TMP DP  RH WIND       PRES   REMARKS
CUT BANK       MOSUNNY   61  23  23 SW32G38   30.02F
GREAT FALLS    SUNNY     67  18  15 SW22G36   30.07F
MALMSTROM AFB  SUNNY     67  19  16 W24G37    30.06F
HELENA         SUNNY     67  26  21 E6        30.17F
$$

MTZ011-013-016-021-045-047-050-051-162200-
NORTH CENTRAL MONTANA

CITY           SKY/WX    TMP DP  RH WIND       PRES   REMARKS
HAVRE          SUNNY     71  31  22 W31G39    29.94F
N BAR RANCH      N/A     68  16  13 W15G22    30.10F
$$

MTZ017>020-022>027-061-062-162200-
NORTHEAST MONTANA

CITY           SKY/WX    TMP DP  RH WIND       PRES   REMARKS
GLASGOW        CLOUDY    68  30  24 W20G26    29.96S
JORDAN           N/A     70  26  19 W21G26    30.00F
SIDNEY         CLOUDY    66  32  28 W22       29.95S
WOLF POINT     CLOUDY    69  29  22 W17       29.95F
MALTA          SUNNY     68  30  24 NW17G25   29.95F
$$

MTZ028>42-056>058-162200-
SOUTHCENTRAL AND SOUTHEAST MONTANA

CITY           SKY/WX    TMP DP  RH WIND       PRES   REMARKS
BAKER          SUNNY     69  31  24 W20G25    30.03F
BILLINGS       SUNNY     73  21  14 W23G31    30.08F
LIVINGSTON     SUNNY     70  18  13 W21       30.17F
MILES CITY     SUNNY     71  28  20 NW18      30.03F
$$

REGIONAL REPORTS...DAKOTAS

CITY           SKY/WX    TMP DP  RH WIND       PRES   REMARKS
WILLISTON      CLOUDY    69  33  26 W15       29.93S
MINOT          SUNNY     67  33  28 W14       29.87S
DICKINSON      SUNNY     68  31  25 W18G25    29.96S
BEACH            N/A     66  27  22 W21G32    30.03R
CROSBY           N/A     66  30  26 NW12      29.91R
TIOGA            N/A     64  32  29 NW16      29.93S
WATFORD CITY     N/A     66  32  28 W14G21    29.93S
BISMARCK       SUNNY     74  30  19 W17G25    29.92S
GRAND FORKS    MOSUNNY   72  36  26 W14G24    29.82S
FARGO          SUNNY     70  38  31 SW22G31   29.86F
BUFFALO SD       N/A     70  28  21 NW23G30   29.98F
RAPID CITY     SUNNY     76  26  15 N13       30.05F
$$

REGIONAL REPORTS...WYOMING/IDAHO/WASHINGTON

CITY           SKY/WX    TMP DP  RH WIND       PRES   REMARKS
GILLETTE       SUNNY     70  21  15 NW14G25   30.13F
SHERIDAN       SUNNY     74  23  15 N18G24    30.10F
BUFFALO WY     SUNNY     70  17  13 SE8       30.17F
CODY           SUNNY     69  17  13 E10       30.19F
YELLOWSTONE LA   N/A     51  16  24 CALM      30.41F
IDAHO FALLS    SUNNY     57  21  24 SW9       30.36F
SALMON         SUNNY     54  28  36 CALM      30.29F
BOISE          SUNNY     62  26  25 NW5       30.31F
SPOKANE        MOSUNNY   61  30  31 SW14      30.18F
$$

REGIONAL REPORTS...ALBERTA

CITY           SKY/WX    TMP DP  RH WIND       PRES   REMARKS
EDMONTON       SUNNY     55  32  41 S6        29.71F
CALGARY        MOSUNNY   66  32  28 S10G17    29.76F
LETHBRIDGE     PTSUNNY   68  32  26 SW35G45   29.86F
MEDICINE HAT   MOSUNNY   72  34  25 W23G30    29.83F
$$

REGIONAL REPORTS...SASKATCHEWAN

CITY           SKY/WX    TMP DP  RH WIND       PRES   REMARKS
SWIFT CURRENT  SUNNY     63  28  27 S10G18    29.87F
REGINA         PTSUNNY   64  32  29 W12G20    29.86F
SASKATOON      MOSUNNY   64  25  22 W13       29.82F
$$




USA.gov is the U.S. government's official web portal to all federal, state and local government web resources and services.